Tracking 28790 objects as of 19-Apr-2024
HD Live streaming from Space Station
objects crossing your sky now

NIMBUS 2 DEB

Track NIMBUS 2 DEB now!
10-day predictions


NORAD ID: 28978
Int'l Code: 1966-040AP
Perigee: 1,053.5 km
Apogee: 1,118.0 km
Inclination: 100.4 °
Period: 106.8 minutes
Semi major axis: 7456 km
RCS: 0.0207 m2 (small)
Launch date: May 15, 1966
Source: United States (US)
Launch site: AIR FORCE WESTERN TEST RANGE (AFWTR)

Note: This is SATELLITE DEBRIS
Your satellite tracking list
Your tracking list is empty




NASA's NSSDC Master Catalog

Two Line Element Set (TLE):
1 28978U 66040AP  24108.20712351  .00003863  00000-0  62787-2 0  9998
2 28978 100.3918 358.9638 0043255 139.1283 352.3580 13.48265358823145
Source of the keplerian elements: AFSPC